Overview Statistics Trail Chart Weather Telemetry Raw packets
 

This is the latest recevied weather packets stored in our database for station/object IW1RCO-13. If no packets are shown the sender has not sent any weather packets the latest 10 day(s).

<< 20 21 22 23 24 25 26 >>
Time Temp. Humidity Pressure Rain* Wind** Luminosity Snow
1788518069 29.44° C 55% 1020.3 hPa - - - -
1788517773 28.33° C 55% 1020 hPa - - - -
1788517469 28.89° C 55% 1020 hPa - - - -
1788517172 28.89° C 54% 1020 hPa - - - -
1788516869 28.33° C 51% 1019.8 hPa - - - -
1788516572 28.89° C 48% 1019.9 hPa - - - -
1788516269 28.89° C 50% 1019.9 hPa - - - -
1788515972 28.89° C 44% 1019.9 hPa - - - -
1788515668 28.89° C 46% 1020 hPa - - - -
1788515372 28.89° C 47% 1019.9 hPa - - - -
1788515068 28.33° C 46% 1019.8 hPa - - - -
1788514771 28.89° C 44% 1019.8 hPa - - - -
1788514468 28.33° C 45% 1019.8 hPa - - - -
1788514171 28.33° C 39% 1019.7 hPa - - - -
1788513868 27.78° C 40% 1019.9 hPa - - - -
1788513571 27.78° C 41% 1020 hPa - - - -
1788513267 27.22° C 45% 1019.7 hPa - - - -
1788512970 27.22° C 49% 1020.2 hPa - - - -
1788512667 27.22° C 48% 1019.9 hPa - - - -
1788512370 26.67° C 47% 1019.9 hPa - - - -
1788511770 26.67° C 48% 1019.8 hPa - - - -
1788511466 26.67° C 50% 1019.7 hPa - - - -
1788511170 26.11° C 51% 1019.8 hPa - - - -
1788510873 26.11° C 55% 1020 hPa - - - -
1788510569 26.11° C 54% 1019.7 hPa - - - -

* Rain since midnight (hover to see other rain measurements)
** Current wind speed in m/s (hover to see current wind gust speed)